Flag for China Weather past 2 weeks in Shanghai, Shanghai Municipality, China

Now
70 °F

Partly sunny.


Feels Like: 70 °F
Forecast: 68 / 82 °F
Wind: 8 mph from East

Location: Shanghai Hongqiao Airport

Current Time: May 29, 2015 at 6:33:44 AM

Latest Report: May 29, 2015 at 5:30 AM


Visibility: N/A

Pressure: 29.68 "Hg

Humidity: 88%

Dew point: 66 °F

Location of ShanghaiLocation

Historic Weather in Shanghai — Graph

°F

Shanghai temperature yesterday

Maximum temperature yesterday: 77 °F (at 2:30 PM)
Minimum temperature yesterday: 68 °F (at 12:00 AM)
Average temperature yesterday: 72 °F

Past Weeks' High & Low Weather Summary

 TemperatureHumidityPressure
High84 °F (May 19, 1:30 PM)100% (May 15, 1:30 PM)30.07 "Hg (May 15, 1:30 PM)
Low59 °F (May 21, 2:30 AM)24% (May 17, 1:00 PM)29.59 "Hg (May 18, 3:30 AM)
Average71 °F71%29.80 "Hg
* Reported May 14 4:00 AM — May 29 4:30 AM, Shanghai, Weather by CustomWeather, © 2015

Note: Actual official high and low records may vary slightly from our data, if they occured in-between our weather recording intervals... More about our weather records

Advertising

Shanghai weather history for previous 24 hours

 ConditionsComfort  
Time TempWeatherWind HumidityBarometerVisibility
4:30 AM
Fri, May 29
70 °FPassing clouds.10 mph88%29.68 "HgN/A
4:00 AM70 °FPassing clouds.8 mph88%29.68 "HgN/A
3:30 AM70 °FPassing clouds.8 mph88%29.68 "HgN/A
3:00 AM70 °FPassing clouds.8 mph88%29.68 "HgN/A
2:30 AM70 °FPassing clouds.8 mph88%29.68 "HgN/A
2:00 AM70 °FPassing clouds.8 mph88%29.68 "HgN/A
1:30 AM70 °FPassing clouds.10 mph88%29.68 "HgN/A
1:00 AM70 °FPassing clouds.8 mph88%29.68 "HgN/A
12:30 AM70 °FPassing clouds.10 mph88%29.68 "HgN/A
12:00 AM70 °FPassing clouds.10 mph88%29.71 "HgN/A
11:30 PM
Thu, May 28
70 °FPassing clouds.8 mph88%29.71 "HgN/A
11:00 PM70 °FPassing clouds.8 mph88%29.71 "HgN/A
10:30 PM70 °FPassing clouds.8 mph88%29.71 "HgN/A
10:00 PM70 °FPassing clouds.10 mph88%29.71 "HgN/A
9:30 PM72 °FPassing clouds.10 mph83%29.71 "HgN/A
9:00 PM72 °FPassing clouds.6 mph83%29.71 "HgN/A
8:30 PM72 °FPassing clouds.8 mph83%29.71 "HgN/A
8:00 PM72 °FPassing clouds.8 mph83%29.68 "HgN/A
7:30 PM72 °FPassing clouds.8 mph83%29.68 "HgN/A
7:00 PM72 °FPassing clouds.8 mph83%29.68 "HgN/A
6:30 PM72 °FPartly sunny.8 mph83%29.65 "HgN/A
6:00 PM73 °FScattered clouds.8 mph78%29.65 "HgN/A
5:30 PM73 °FMostly cloudy.8 mph78%29.65 "HgN/A
5:00 PM73 °FPartly sunny.8 mph78%29.65 "HgN/A
4:30 PM75 °FPartly sunny.8 mph78%29.62 "Hg5 mi
4:00 PM75 °FPartly sunny.8 mph78%29.65 "Hg5 mi
3:30 PM75 °FPartly sunny.8 mph78%29.65 "Hg5 mi
3:00 PM77 °FBroken clouds.8 mph74%29.65 "Hg5 mi
2:30 PM77 °FPartly sunny.6 mph74%29.65 "Hg5 mi
2:00 PM75 °FPartly sunny.6 mph78%29.65 "Hg5 mi
1:30 PM75 °FPartly sunny.8 mph78%29.65 "Hg4 mi
1:00 PM75 °FMostly cloudy.10 mph78%29.65 "Hg4 mi
12:30 PM73 °FPartly sunny.8 mph83%29.65 "Hg4 mi
12:00 PM73 °FMostly cloudy.10 mph83%29.65 "Hg4 mi
11:30 AM73 °FMostly cloudy.8 mph83%29.65 "Hg4 mi
11:00 AM73 °FFog.8 mph83%29.65 "Hg3 mi
10:30 AM75 °FPartly sunny.8 mph78%29.65 "Hg4 mi
10:00 AM75 °FPartly sunny.6 mph78%29.65 "HgN/A
9:30 AM73 °FPartly sunny.8 mph83%29.68 "HgN/A
9:00 AM73 °FPartly sunny.6 mph83%29.68 "HgN/A
8:30 AM73 °FPartly sunny.3 mph83%29.65 "HgN/A
8:00 AM72 °FPartly sunny.6 mph88%29.65 "Hg4 mi
7:30 AM70 °FPartly sunny.6 mph94%29.65 "Hg4 mi
7:00 AM70 °FPartly sunny.3 mph94%29.65 "Hg4 mi
6:30 AM70 °FFog.3 mph94%29.65 "Hg3 mi
6:00 AM68 °FFog.3 mph100%29.65 "Hg2 mi
Weather by CustomWeather, © 2015

See weather overviewHow to use our weather pages